Weather Roundup
Issued by NWS

Home | Current Version | Previous Version | Graphics & Text | Print | Product List | Glossary Off
Versions: 1 2 3 4 5 6 7 8 9 10 11 12 13 14 15 16 17 18 19 20 21 22 23 24 25 26 27 28 29 30 31 32 33 34 35 36 37 38 39 40 41 42 43 44 45 46 47 48 49 50

000
NZUS93 KARX 270559
HRRWXR

CURRENT HOURLY OBSERVATIONS ACROSS
MUCH OF THE UPPER MISSISSIPPI VALLEY
NATIONAL WEATHER SERVICE LA CROSSE WI
1200 AM CST THU NOV 27 2014


...SOUTHEAST MINNESOTA...


CITY           SKY/WX    TMP DP  RH WIND       PRES   REMARKS
ROCHESTER      CLOUDY    19  14  81 NW16      30.30R WCI   4
ROCHESTER/MAYO CLOUDY    20  14  77 NW16      30.31R WCI   5
WINONA         CLOUDY    25  19  80 NW12G18   30.33R WCI  14
AUSTIN         CLOUDY    14  10  85 NW13      30.33R WCI   0
ALBERT LEA     CLOUDY    12  10  92 NW9       30.34R WCI   0
DODGE CENTER   FLURRIES  18  14  86 NW14      30.32R WCI   4
PRESTON        LGT SNOW  20  17  88 NW7       30.29R WCI  11
OWATONNA       FLURRIES  14   9  79 NW12      30.35R WCI   0
FARIBAULT      FLURRIES  14   9  79 NW10G16   30.37R WCI   1
$$

...ELSEWHERE IN MINNESOTA...


CITY           SKY/WX    TMP DP  RH WIND       PRES   REMARKS
MINNEAPOLIS    PTCLDY    11   0  61 NW12      30.40R WCI  -3
INTNL FALLS    CLEAR    -10 -15  78 NW5       30.45R WCI -22
DULUTH         PTCLDY    -2  -8  76 NW15      30.33R WCI -22
RED WING       FLURRIES  18   9  68 N7        30.36R WCI   8
REDWOOD FALLS  CLEAR      0  -6  76 NW15      30.47R WCI -19
MANKATO        CLEAR      9   0  66 NW13      30.40R WCI  -7
WORTHINGTON    CLEAR      1  -6  71 N16       30.42R WCI -18
FAIRMONT       CLOUDY     7   0  72 NW16G22   30.40R WCI -11
$$

...SOUTHWEST WISCONSIN...


CITY           SKY/WX    TMP DP  RH WIND       PRES   REMARKS
LA CROSSE      CLOUDY    25  18  74 NW9       30.30R WCI  15
PRAIRIE DU CHI CLOUDY    25  20  82 NW7       30.29R WCI  17
BOSCOBEL       CLOUDY    22  18  85 CALM      30.29R
LONE ROCK      CLOUDY    23  17  78 W6        30.26R HAZE    WCI  16
PLATTEVILLE    MOCLDY    23  21  91 CALM      30.25R
FORT MC COY    MOCLDY    24  19  84 NW10      30.28R WCI  13
CAMP DOUGLAS   MIX PCPN  23  23 100 NW8       30.24R WCI  14
VIROQUA        CLOUDY    23  21  94 NW10      30.24R WCI  12
WIS DELLS      LGT SNOW  21  19  94 NW3       30.22R
$$

...ELSEWHERE IN WISCONSIN...


CITY           SKY/WX    TMP DP  RH WIND       PRES   REMARKS
MILWAUKEE      PTCLDY    22  15  75 NW9       30.19R WCI  12
MADISON        CLOUDY    19  16  88 CALM      30.23R FOG
GREEN BAY      LGT SNOW  24  20  84 NW6       30.20R FOG     WCI  17
EAU CLAIRE     CLOUDY    17  10  74 N10       30.32R WCI   5
BLACK RVR FLS  CLOUDY    23  18  81 NW6       30.27R WCI  16
MEDFORD        FLURRIES  17  13  84 NW10      30.21R WCI   5
WAUSAU         CLOUDY    20  15  81 NW7       30.20R WCI  11
WIS RAPIDS     CLOUDY    22  15  75 NW13      30.24R WCI  10
MARSHFIELD     LGT SNOW  20  14  77 NW10      30.22R WCI   9
RICE LAKE      CLOUDY    13   7  75 NW12      30.34R WCI  -1
$$

...NORTHEAST IOWA...


CITY           SKY/WX    TMP DP  RH WIND       PRES   REMARKS
DECORAH        CLOUDY    23  18  80 N14       30.27R WCI  11
MASON CITY     CLOUDY    13   9  84 NW20      30.37R WCI  -5
CHARLES CITY   CLOUDY    21  18  86 N14       30.31S WCI   8
OELWEIN        CLOUDY    25  23  93 NW12      30.30R WCI  14
$$

...ELSEWHERE IN IOWA...


CITY           SKY/WX    TMP DP  RH WIND       PRES   REMARKS
DES MOINES     FLURRIES  22  17  81 N14       30.39R WCI   9
IOWA CITY      LGT SNOW  27  24  89 NW6       30.32R FOG     WCI  20
FORT DODGE     CLOUDY    14   7  73 NW5       30.42R WCI   6
$$

...NORTHERN ILLINOIS...


CITY           SKY/WX    TMP DP  RH WIND       PRES   REMARKS
CHICAGO-OHARE  FLURRIES  26  21  81 NW9       30.18R WCI  17
CHICAGO-MIDWAY LGT SNOW  30  23  75 NW9       30.19R WCI  22
MOLINE         PTCLDY    24  18  77 NW6       30.27R WCI  17
ROCKFORD       PTCLDY    18  14  84 N6        30.24S FOG     WCI  10
PEORIA         PTCLDY    24  17  74 N6        30.25R WCI  17
$$

NOTE: "FAIR" INDICATES FEW OR NO CLOUDS BELOW 12,000 FEET WITH NO
SIGNIFICANT WEATHER AND/OR OBSTRUCTIONS TO VISIBILITY. WIND
SPEEDS ARE IN MILES-PER-HOUR.



USA.gov is the U.S. government's official web portal to all federal, state and local government web resources and services.